Location: Unspecified
(58.9933°N, 5.6375°E)
Time: 15:44:25
(UTC+02:00)

Okean 3 - Visible Passes

Search period start: 26 May 2015 00:00
Search period end: 05 June 2015 00:00
Orbit: 581 x 605 km, 82.5° (Epoch: 25 May)

Date Brightness Start Highest point End Pass type
(mag) Time Alt. Az. Time Alt. Az. Time Alt. Az.
26 May 6.5 03:32:34 10° NNE 03:35:10 16° NE 03:37:52 10° E visible
30 May 6.9 02:33:15 10° NNE 02:33:59 10° NE 02:34:50 10° NE visible
31 May 6.5 02:41:28 10° NNE 02:43:28 13° NE 02:45:35 10° ENE visible
01 Jun 6.3 02:50:12 10° NNE 02:52:54 16° NE 02:55:41 10° E visible
02 Jun 6.2 02:59:05 10° N 03:02:19 21° NE 03:05:35 10° ESE visible
03 Jun 5.7 03:08:03 10° N 03:11:40 26° ENE 03:15:18 10° ESE visible
04 Jun 5.2 03:17:04 10° N 03:20:59 33° ENE 03:24:53 10° SE visible
